{"data":{"norad_id":50497,"epoch":"2026-09-19T21:31:01.305696Z","epoch_age_seconds":78022,"freshness":"FRESH","line1":"1 50497U 21132AE  26262.89654289 -.00000006  00000+0 -46983-4 0  9994","line2":"2 50497  87.9162 316.6388 0001638 103.5187 256.6128 13.18685933234127","mean_motion":13.18685933,"eccentricity":0.0001638,"inclination_deg":87.9162,"raan_deg":316.6388,"arg_perigee_deg":103.5187,"mean_anomaly_deg":256.6128,"bstar":-4.6983e-5,"rev_number":23412,"period_min":109.19961788961,"perigee_km":1188.5037644002,"apogee_km":1190.9830020138,"semimajor_km":7567.880383207,"source":"CELESTRAK","updated_at":"2026-09-20T09:00:44.705768Z"}}